Terminal Aerodrome Forecast
Issued by NWS North Platte, NE

Home | Current Version | Previous Version | Text Only | Print | Product List | Glossary On
Versions: 1 2 3 4 5 6 7 8 9 10 11 12 13 14 15 16 17 18 19 20 21 22 23 24 25 26 27
000
FTUS43 KLBF 022300
TAFLBF
TAF
KLBF 022323Z 0300/0324 18009KT P6SM SKC
     FM030300 15010KT P6SM SKC
     FM031000 VRB05KT 3SM BR SCT015
     FM031500 20007KT P6SM SKC
     FM031900 18010G20KT P6SM SKC=

USA.gov is the U.S. government's official web portal to all federal, state and local government web resources and services.